Showing default

TRAAC, 205

Orbit data source: Space-Track

TRAAC, 205 is a payload satellite owned by USN BuWeps (US) in LEO that was launched on Wed, 15 Nov 1961 UTC via a THOR ABLESTAR launch vehicle from the Air Force Eastern Test Range (AFETR). Payloads include a variety of satellites, spacecraft, and rockets equipped with specific instruments for various scientific and technological missions. These include communications satellites like Starlink; space stations such as the ISS; scientific satellites like the Hubble; Earth observation satellites from companies like Planet Labs, Umbra, and HawkEye 360; GPS; miniature CubeSats for education and research; and military/defense satellites.

Loading next visibility...
TRAAC details
Identifier
205, 1961-031B
Orbit
LEO
Last TLE update8 hours ago
Origin
Flag of USUSN BuWeps (US)
ManufacturerAPL
MissionDefense Technology
Bus & MotorTRANSIT 4, Unknown motor
Mass105 kg wet, 105 kg dry
Launch date (UTC)
1961-11-15 (63 years ago)
Launch vehicle
THOR ABLESTAR
Launch site
Air Force Eastern Test Range (AFETR)
Object type
Payload
Rocket body
Debris
Shape & HBRCyl + Ell, 10 m
Radar Cross Section1.323 m², Medium (>0.1 m² and < 1m²)

Expand to show TLE details & history

TLE from 8 hours ago
0 TRAAC
1   205U 61031B   25014.04739411  .00000081  00000-0  73746-4 0  9999
2   205  32.4394 233.0000 0101959 357.5306   2.4804 13.62528798148716
Epoch: 2025-01-14T01:08Z
Definitive object data (Epoch: 2025-01-14T01:08:14.851Z)
Latitude-0.00001°
Longitude102.17841°
Altitude949.849 km
Speed7.416 km/s
True Right ascension15h 31m 59s
True Declination0° 00' 00"
Sunlit
Object was in daylight at TLE epoch
Visualization TLE readout
Latitude15.72806°
Longitude-105.59396°
Altitude1,089.607 km
Speed7.279 km/s
Apparent Right ascension00h 01m 46s
Apparent Declination-11° 12' 11"
Sunlit
Object is in daylight
Visualization observer readout
Local Sidereal Time09:29:53
Azimuth299.912° NW
Elevation-45.872°
Doppler factor1
Orbital elements
Apogee altitude1,105.435 km
Perigee altitude954.371 km
Semi-major axis7,408.04 km
Eccentricity0.0101959
Inclination32.4394°
RAAN233°
Arg. of periapsis357.5306°
True anomaly2.53162°
Mean anomaly2.4804°
Eccentric anomaly2.50594°
Mean motion3.40399 °/min
BSTAR0.000073746
Orbital period105.76 mins
Loading maneuver chart data...
Loading historical data...
Loading historical data...
Loading historical data...
Loading historical data...
Loading historical data...
Loading historical data...
Loading historical data...
Other satellites on launch #31 in the year 1961 (1961-11-15 UTC)

TRAAC Visibility forecast

Observer location: undefined°, undefined

Span
Click to sort rows by Start time (UTC) header in descending order
Start Az.
Max El. time (UTC)
Max El. Az.
Max El.
End time (UTC)
End Az.
7 mins2025-01-14 17:09:03.498Z188.068° SSW2025-01-14 17:13:03.498Z148.106° SSE16.54°2025-01-14 17:16:03.498Z118.544° SE
10 mins2025-01-14 19:00:03.498Z221.635° SW2025-01-14 19:04:03.498Z169.361° S30.717°2025-01-14 19:10:03.498Z102.88° ESE
11 mins2025-01-14 20:51:03.498Z247.754° W2025-01-14 20:56:03.498Z182.881° SSW35.199°2025-01-14 21:02:03.498Z113.964° SE
10 mins2025-01-14 22:43:03.498Z252.733° W2025-01-14 22:48:03.498Z196.016° SSW27.892°2025-01-14 22:53:03.498Z142.575° SSE
4 mins2025-01-15 00:38:03.498Z224.086° SW2025-01-15 00:39:03.498Z215.051° SW13.165°2025-01-15 00:42:03.498Z188.732° SSW
|